Effective Sunday, March 17, 2024, the National Weather Service National Data Buoy Center will discontinue its Dial-A-Buoy Interactive Voice Response system. For more information, see Service Change Notice 24-06 (PDF).

Station MGPT2 - 8770613 - Morgans Point, TX Image indicating link to RSS feed of recent meteorological observations for station MGPT2


Conditions at MGPT2 as of
(2:00 am CST)
0800 GMT on 02/29/2024:
     

Click on the graph icon in the table below to see a time series plot of the last five days of that observation.

5-day plot - Atmospheric Pressure Atmospheric Pressure (PRES):30.25 in
5-day plot - Pressure Tendency Pressure Tendency (PTDY):-0.03 in ( Falling )
5-day plot - Water Temperature Water Temperature (WTMP): 63.9 °F
5-day plot - Wind Chill Wind Chill (CHILL): 47.3 °F
5-day plot - Wind Speed at 10 Meters Wind Speed at 10 meters (WSPD10M): 13.6 kts
5-day plot - Wind Speed at 20 Meters Wind Speed at 20 meters (WSPD20M): 13.6 kts
Previous observations
TIME
(CST)
5-day plot - Wind Direction
WDIR
 
5-day plot - Wind Speed
WSPD
kts
5-day plot - Wind Gust
GST
kts
5-day plot - Wave Height
WVHT
ft
5-day plot - Dominant Wave Period
DPD
sec
5-day plot - Average Wave Period
APD
sec
5-day plot - Mean Wave Direction
MWD
 
5-day plot - Atmospheric Pressure
PRES
in
5-day plot - Pressure Tendency
PTDY
in
5-day plot - Air Temperature
ATMP
°F
5-day plot - Water Temperature
WTMP
°F
5-day plot - Dew Point
DEWP
°F
5-day plot - Salinity
SAL
psu
5-day plot - Visibility
VIS
nmi
5-day plot - Tide (above MLLW)
TIDE
ft
2024-02-29 01:54 am N 11.1 14.0----30.25- 51.6 63.9----
2024-02-29 01:48 am-------30.25-- 63.9----
2024-02-29 01:42 am-------30.24-- 63.9----
2024-02-29 01:36 am N 11.1 13.0----30.25- 51.6 63.9----
2024-02-29 01:30 am N 11.1 14.0----30.25- 51.4 63.9----
2024-02-29 01:24 am-------30.24-- 63.9----
2024-02-29 01:18 am-------30.25-- 64.0----
2024-02-29 01:12 am-------30.25-- 64.0----
2024-02-29 01:06 am N 9.9 13.0----30.26- 51.6 64.0----
2024-02-29 01:00 am N 11.1 14.0----30.27+0.01 51.6 64.2----
2024-02-29 12:54 am-------30.27-- 64.2----
2024-02-29 12:48 am-------30.26-- 64.4----
2024-02-29 12:42 am N 9.9 14.0----30.27- 51.8 64.4----
2024-02-29 12:36 am N 12.0 15.0----30.27- 51.8 64.2----
2024-02-29 12:30 am N 12.0 15.9----30.27- 51.8 64.2----
2024-02-29 12:24 am-------30.27-- 64.2----
2024-02-29 12:18 am-------30.27-- 64.2----
2024-02-29 12:12 am N 9.9 15.9----30.27- 52.2 64.2----
2024-02-29 12:06 am N 14.0 17.1----30.27-- 64.2----
2024-02-29 12:00 am-------30.27+0.02- 64.2----
2024-02-28 11:54 pm N 13.0 17.1----30.27- 52.2 64.2----
2024-02-28 11:48 pm-------30.27-- 64.2----
2024-02-28 11:42 pm N 11.1 14.0----30.27- 52.2 64.2----
2024-02-28 11:36 pm-------30.27-- 64.2----
2024-02-28 11:30 pm-------30.27-- 64.4----
2024-02-28 11:24 pm N 14.0 15.9----30.27- 52.3 64.4----
2024-02-28 11:18 pm-------30.28-- 64.4----
2024-02-28 11:12 pm N 14.0 17.1----30.28- 52.3 64.6----
2024-02-28 11:06 pm-------30.28-- 64.4----
2024-02-28 11:00 pm-------30.27+0.04- 64.4----
2024-02-28 10:54 pm N 13.0 18.1----30.27- 52.7 64.2----
2024-02-28 10:48 pm-------30.27-- 64.2----
2024-02-28 10:42 pm N 13.0 19.0----30.27- 52.5 64.2----
2024-02-28 10:36 pm N 14.0 19.0----30.26- 52.9 64.2----
2024-02-28 10:30 pm N 15.0 20.0----30.25- 53.1 64.2----
2024-02-28 10:24 pm N 15.9 20.0----30.26- 52.9 64.4----
2024-02-28 10:18 pm-------30.26-- 64.4----
2024-02-28 10:12 pm N 15.0 19.0----30.26- 52.9 64.8----
2024-02-28 10:06 pm N 19.0 22.0----30.27- 53.1 64.8----
2024-02-28 10:00 pm N 13.0 20.0----30.26+0.08 53.1 64.8----
2024-02-28 09:54 pm N 14.0 19.0----30.25- 53.2 64.8----
2024-02-28 09:48 pm-------30.25-- 64.8----
2024-02-28 09:42 pm N 15.0 18.1----30.26- 53.1 64.8----
2024-02-28 09:36 pmNNW 17.1 22.0----30.26- 52.9 64.8----
2024-02-28 09:30 pm N 15.9 21.0----30.26- 53.4 64.8----
2024-02-28 09:24 pmNNW 15.0 18.1----30.26- 53.6 64.8----
2024-02-28 09:18 pm-------30.27-- 64.6----
2024-02-28 09:12 pmNNW 19.0 22.0----30.26- 53.4 64.9----
2024-02-28 09:06 pmNNW 18.1 22.0----30.25- 53.4 64.9----
2024-02-28 09:00 pm-------30.25+0.09- 65.1----
2024-02-28 08:54 pmNNW 19.0 22.9----30.25- 54.0 65.3----
2024-02-28 08:48 pm-------30.25-- 65.3----
2024-02-28 08:42 pmNNW 15.9 22.0----30.25- 54.5 65.3----
2024-02-28 08:36 pmNNW 15.9 19.0----30.25- 54.9 65.5----
2024-02-28 08:30 pm-------30.25-- 65.5----
2024-02-28 08:24 pmNNW 18.1 21.0----30.24- 55.0 65.7----
2024-02-28 08:18 pm-------30.24-- 65.7----
2024-02-28 08:12 pmNNW 17.1 24.1----30.23- 55.9 65.5----
2024-02-28 08:06 pmNNW 18.1 22.0----30.24- 56.1 65.5----
2024-02-28 08:00 pm-------30.23+0.09- 65.5----
2024-02-28 07:54 pmNNW 19.0 22.0----30.22- 57.2 65.7----
2024-02-28 07:48 pm-------30.22-- 65.7----
2024-02-28 07:42 pmNNW 15.9 21.0----30.21- 57.9 65.8----
2024-02-28 07:36 pmNNW 19.0 22.0----30.22- 58.1 65.8----
2024-02-28 07:30 pm-------30.20-- 66.0----
2024-02-28 07:24 pmNNW 15.0 20.0----30.19- 58.5 66.0----
2024-02-28 07:18 pm-------30.20-- 66.0----
2024-02-28 07:12 pmNNW 15.0 20.0----30.19- 59.2 66.0----
2024-02-28 07:06 pmNNW 14.0 19.0----30.19- 59.4 66.0----
2024-02-28 07:00 pm-------30.18+0.06- 66.0----
2024-02-28 06:54 pmNNW 14.0 19.0----30.17- 59.5 66.0----
2024-02-28 06:48 pm-------30.17-- 66.2----
2024-02-28 06:42 pm N 18.1 24.1----30.17- 60.3 66.4----
2024-02-28 06:36 pm N 18.1 22.0----30.17- 60.3 66.4----
2024-02-28 06:30 pmNNW 15.9 22.0----30.17-- 66.6----
2024-02-28 06:24 pmNNW 17.1 22.0----30.17- 60.6 66.6----
2024-02-28 06:18 pm-------30.16-- 66.6----
2024-02-28 06:12 pmNNW 19.0 22.0----30.16- 61.0 66.6----
2024-02-28 06:06 pmNNW 15.9 22.9----30.16- 61.3 66.6----
2024-02-28 06:00 pm-------30.16+0.06- 66.6----
2024-02-28 05:54 pmNNW 17.1 20.0----30.16- 61.7 66.6----
2024-02-28 05:48 pm---------- 66.6----
2024-02-28 05:42 pmNNW 18.1 22.9------ 62.4 66.6----
2024-02-28 05:36 pmNNW 18.1 22.9------ 62.6 66.6----
2024-02-28 05:30 pm-------30.15-- 66.6----
2024-02-28 05:24 pm-------30.15-- 66.6----
2024-02-28 05:00 pm-------30.14+0.06- 66.9----
2024-02-28 04:54 pm N 22.0 26.0----30.14- 63.7 66.9----
2024-02-28 04:48 pm N 19.0 22.9----30.14- 63.9 67.1----
2024-02-28 04:42 pm N 19.0 26.0----30.14- 64.0 67.1----
2024-02-28 04:36 pmNNW 22.0 25.1----30.14- 64.0 67.1----
2024-02-28 04:30 pm-------30.13-- 67.3----
2024-02-28 04:24 pmNNW 15.0 22.0----30.13- 64.8 67.3----
2024-02-28 04:18 pm-------30.13-- 67.3----
2024-02-28 04:12 pmNNW 18.1 21.0----30.12- 64.6 67.3----
2024-02-28 04:06 pmNNW 20.0 24.1----30.12- 64.4 67.3----
2024-02-28 04:00 pm-------30.12+0.03- 67.3----
2024-02-28 03:54 pmNNW 20.0 22.0----30.12- 64.2 67.5----
2024-02-28 03:48 pm-------30.11-- 67.5----
2024-02-28 03:42 pmNNW 18.1 25.1----30.11- 64.6 67.5----
2024-02-28 03:36 pmNNW 20.0 22.9----30.11- 64.6 67.5----
2024-02-28 03:30 pm-------30.11-- 67.5----
2024-02-28 03:24 pmNNW 18.1 22.0----30.10- 64.6 67.5----
2024-02-28 03:18 pmNNW 20.0 25.1----30.09- 64.4 67.5----
2024-02-28 03:12 pm N 22.0 26.0----30.10- 64.8 67.6----
2024-02-28 03:06 pmNNW 18.1 24.1----30.09- 65.1 67.6----
2024-02-28 03:00 pm-------30.10+0.01- 67.6----
2024-02-28 02:54 pmNNW 19.0 27.0----30.09- 64.9 67.6----
2024-02-28 02:48 pmNNW 22.0 26.0----30.09- 65.1 67.8----
2024-02-28 02:42 pmNNW 19.0 25.1----30.09- 65.1 67.8----
2024-02-28 02:36 pm N 22.0 26.0----30.09- 65.3 67.8----
2024-02-28 02:30 pm-------30.09-- 67.8----
2024-02-28 02:24 pmNNW 18.1 22.0----30.09- 65.7 67.8----
2024-02-28 02:18 pm-------30.09-- 68.0----
2024-02-28 02:12 pmNNW 22.0 25.1----30.09- 64.9 68.0----
2024-02-28 02:06 pmNNW 20.0 24.1----30.08- 65.1 68.0----
2024-02-28 02:00 pm-------30.09+0.03- 68.0----
2024-02-28 01:54 pmNNW 19.0 24.1----30.08- 64.9 68.0----
2024-02-28 01:48 pm-------30.09-- 68.0----
2024-02-28 01:42 pmNNW 20.0 25.1----30.09- 65.5 68.0----
2024-02-28 01:36 pmNNW 19.0 27.0----30.09- 65.1 68.0----
2024-02-28 01:30 pm-------30.09-- 68.0----
2024-02-28 01:24 pmNNW 17.1 22.9----30.09- 65.1 68.0----
2024-02-28 01:18 pm-------30.09-- 68.0----
2024-02-28 01:12 pm NW 18.1 24.1----30.09- 64.4 68.2----
2024-02-28 01:06 pmNNW 20.0 24.1----30.09- 64.2 68.2----
2024-02-28 01:00 pm-------30.09+0.09- 68.2----
2024-02-28 12:54 pmNNW 21.0 26.0----30.09- 64.4 68.2----
2024-02-28 12:48 pm-------30.09-- 68.2----
2024-02-28 12:42 pm NW 17.1 22.9----30.09- 64.8 68.2----
2024-02-28 12:36 pm NW 15.0 22.9----30.09- 64.8 68.2----
2024-02-28 12:30 pm NW 15.9 20.0----30.09- 64.8 68.2----
2024-02-28 12:24 pmNNW 18.1 22.9----30.09- 64.0 68.2----
2024-02-28 12:18 pm NW 12.0 22.0----30.10- 64.4 68.4----
2024-02-28 12:12 pm NW 17.1 22.0----30.09- 63.7 68.4----
2024-02-28 12:06 pmNNW 17.1 22.9----30.09- 63.5 68.4----
2024-02-28 12:00 pm-------30.09+0.12- 68.4----
2024-02-28 11:54 am NW 14.0 21.0----30.09- 63.7 68.4----
2024-02-28 11:48 am-------30.09-- 68.4----
2024-02-28 11:42 amNNW 20.0 25.1----30.09- 63.7 68.4----
2024-02-28 11:36 am NW 19.0 22.0----30.08- 63.9 68.4----
2024-02-28 11:30 am NW 17.1 22.0----30.08- 64.4 68.4----
2024-02-28 11:24 am NW 13.0 19.0----30.08- 64.9 68.4----
2024-02-28 11:18 amNNW 15.0 18.1----30.07- 64.9 68.4----
2024-02-28 11:12 am-------30.06-- 68.2----
2024-02-28 11:06 amNNW 14.0 19.0----30.06- 65.5 68.2----
2024-02-28 11:00 am-------30.06+0.12- 68.2----
2024-02-28 10:54 amNNW 14.0 19.0----30.05- 66.0 68.2----
2024-02-28 10:48 am-------30.04-- 68.0----
2024-02-28 10:42 amNNW 15.9 18.1----30.04- 66.2 68.0----
2024-02-28 10:36 amNNW 14.0 18.1----30.04- 66.9 68.0----
2024-02-28 10:30 am-------30.03-- 68.0----
2024-02-28 10:24 am NW 15.0 22.0----30.03- 68.2 68.0----
2024-02-28 10:18 am-------30.01-- 68.0----
2024-02-28 10:12 am W 7.0 8.9----30.01- 72.0 68.0----
2024-02-28 10:06 am W 7.0 8.0----30.01- 71.8 68.0----
2024-02-28 10:00 am-------30.01+0.12- 68.2----
2024-02-28 09:54 am W 5.1 6.0----30.00- 71.1 68.2----
2024-02-28 09:48 am-------30.00-- 68.2----
2024-02-28 09:42 am W 6.0 7.0----29.99- 70.7 68.2----
2024-02-28 09:36 am W 5.1 6.0----29.99- 70.5 68.2----
2024-02-28 09:30 am-------29.99-- 68.2----
2024-02-28 09:24 am W 5.1 8.0----29.98- 70.2 68.2----
2024-02-28 09:18 am-------29.98-- 68.2----
2024-02-28 09:12 am W 7.0 8.9----29.98- 70.5 68.2----
2024-02-28 09:06 amWSW 8.0 9.9----29.97- 71.4 68.2----
2024-02-28 09:00 am-------29.97+0.11- 68.2----
2024-02-28 08:54 am W 6.0 7.0----29.97- 71.8 68.2----
2024-02-28 08:48 am-------29.96-- 68.2----
2024-02-28 08:42 am SW 7.0 8.9----29.96- 72.1 68.2----
2024-02-28 08:36 am SW 6.0 8.9----29.96- 72.0 68.4----
2024-02-28 08:30 am-------29.96-- 68.4----
2024-02-28 08:24 am SW 5.1 8.9----29.95- 72.1 68.4----
2024-02-28 08:18 am-------29.96-- 68.4----
2024-02-28 08:12 am SW 7.0 9.9----29.95- 72.3 68.4----
2024-02-28 08:06 amWSW 7.0 9.9----29.94- 72.1 68.4----
2024-02-28 08:00 amWSW 6.0 8.9----29.94+0.14 72.3 68.4----
2024-02-28 07:54 amWSW 6.0 8.9----29.94- 72.1 68.4----
2024-02-28 07:48 amWSW 5.1 8.0----29.94- 71.8 68.4----
2024-02-28 07:42 am SW 5.1 8.9----29.93- 72.1 68.2----
2024-02-28 07:36 am SW 5.1 7.0----29.92- 72.1 68.2----
2024-02-28 07:30 am SW 5.1 8.9----29.91- 72.0 68.0----
2024-02-28 07:24 am-------29.90-- 68.0----
2024-02-28 07:18 am-------29.90-- 68.0----
2024-02-28 07:12 am-------29.90-- 68.2----
2024-02-28 07:06 am SW 6.0 9.9----29.90- 72.0 68.2----
2024-02-28 07:00 am SW 6.0 9.9----29.89+0.11 72.0 68.2----
2024-02-28 06:54 am-------29.89-- 68.2----
2024-02-28 06:48 am-------29.88-- 68.2----
2024-02-28 06:42 am SW 6.0 11.1----29.88- 72.0 68.2----
2024-02-28 06:36 am SW 5.1 8.0----29.88- 72.0 68.2----
2024-02-28 06:30 am-------29.87-- 68.2----
2024-02-28 06:24 am SW 7.0 9.9----29.87- 72.0 68.2----
2024-02-28 06:18 am-------29.87-- 68.2----
2024-02-28 06:12 am-------29.86-- 68.0----
2024-02-28 06:06 amWSW 6.0 8.9----29.86- 72.0 68.0----
2024-02-28 06:00 am SW 8.0 12.0----29.86+0.08 72.1 68.0----
2024-02-28 05:54 am-------29.84-- 68.2----
2024-02-28 05:48 am-------29.84-- 68.2----
2024-02-28 05:42 amSSW 7.0 14.0----29.83- 72.0 68.2----
2024-02-28 05:36 am SW 12.0 15.0----29.82- 72.0 68.2----
2024-02-28 05:30 am-------29.82-- 68.2----
2024-02-28 05:24 amSSW 6.0 14.0----29.81- 71.6 68.2----
2024-02-28 05:18 am-------29.81-- 68.2----
2024-02-28 05:12 am S 7.0 13.0----29.82- 71.4 68.2----
2024-02-28 05:06 amSSW 8.9 13.0----29.81-- 68.2----
2024-02-28 05:00 am-------29.80+0.00- 68.4----
2024-02-28 04:54 am S 8.0 13.0----29.80- 71.2 68.4----
2024-02-28 04:48 am-------29.79-- 68.4----
2024-02-28 04:42 am-------29.79-- 68.5----
2024-02-28 04:36 am S 7.0 9.9----29.79- 70.9 68.5----
2024-02-28 04:30 am S 7.0 9.9----29.78- 71.1 68.5----
2024-02-28 04:24 am-------29.78-- 68.5----
2024-02-28 04:18 am-------29.77-- 68.7----
2024-02-28 04:12 am S 8.0 13.0----29.77- 71.1 68.7----
2024-02-28 04:06 am S 9.9 12.0----29.77- 71.1 68.7----
2024-02-28 04:00 am-------29.78-0.03- 68.7----
2024-02-28 03:54 am S 7.0 11.1----29.77- 71.1 68.7----
2024-02-28 03:48 am-------29.78-- 68.9----
2024-02-28 03:42 am-------29.78-- 68.9----
2024-02-28 03:36 am S 8.0 12.0----29.78- 71.2 68.9----
2024-02-28 03:30 am-------29.78-- 68.9----
2024-02-28 03:24 am S 8.9 14.0----29.78- 71.2 68.9----
2024-02-28 03:18 am-------29.77-- 68.9----
2024-02-28 03:12 am S 8.0 9.9----29.78- 71.1 69.1----
2024-02-28 03:06 am-------29.78-- 69.1----
2024-02-28 03:00 am-------29.78-0.02- 69.1----
2024-02-28 02:54 am S 8.9 13.0----29.79- 71.2 69.1----
2024-02-28 02:48 am-------29.79-- 69.1----
2024-02-28 02:42 am-------29.80-- 69.1----
2024-02-28 02:36 am S 7.0 11.1----29.80- 71.4 69.1----
2024-02-28 02:30 amSSW 7.0 13.0----29.80-- 69.1----
2024-02-28 02:24 am-------29.79-- 69.3----
2024-02-28 02:18 am-------29.78-- 69.3----
2024-02-28 02:12 am-------29.78-- 69.3----
2024-02-28 02:06 am S 8.0 12.0----29.79- 71.1 69.3----
2024-02-28 02:00 amSSW 8.0 14.0----29.79+0.00 71.1 69.1----
2024-02-28 01:54 am-------29.80-- 69.3----